SJX761 RCTP-WIII

Flight info

Callsign SJX761
Flight time N/A
Altitude 38000
Route TINHO1A TINHO Q11 TITUS B591 JICHI Q11 POTIB M646 LAO/N0487F400 M646 SANRO B591 LUBAN/N0490F390 W3 OLRAX/N0487F400 M646 VJN P648 AMBOY
Aircraft A359/H-SDE2E3GHIJ3J4J5LM1ORWXY/LB1D1

Departure

Time 2026-05-05 10:06
Airport Taiwan Taoyuan International Airport (RCTP)

Arrival

Time N/A
Airport Soekarno-Hatta International Airport (WIII)
Time Latitude Longitude Altitude Speed Heading
2026-05-05 09:35 25.07600 121.23438 105 ft 0 kts 319°
2026-05-05 09:55 25.07586 121.23452 103 ft 4 kts 319°
2026-05-05 09:55 25.07565 121.23471 107 ft 4 kts 319°
2026-05-05 09:56 25.07545 121.23491 104 ft 4 kts 319°
2026-05-05 09:56 25.07527 121.23508 104 ft 4 kts 313°
2026-05-05 09:56 25.07517 121.23529 104 ft 4 kts 249°
2026-05-05 09:56 25.07532 121.23552 105 ft 4 kts 223°
2026-05-05 09:57 25.07548 121.23568 105 ft 0 kts 229°
2026-05-05 09:59 25.07547 121.23566 105 ft 2 kts 229°
2026-05-05 10:00 25.07535 121.23551 107 ft 6 kts 229°
2026-05-05 10:00 25.07472 121.23471 107 ft 14 kts 229°
2026-05-05 10:00 25.07399 121.23376 104 ft 17 kts 230°
2026-05-05 10:00 25.07348 121.23310 105 ft 10 kts 229°
2026-05-05 10:01 25.07297 121.23245 104 ft 13 kts 229°
2026-05-05 10:01 25.07236 121.23187 106 ft 10 kts 196°
2026-05-05 10:01 25.07194 121.23197 106 ft 9 kts 151°
2026-05-05 10:01 25.07151 121.23233 105 ft 7 kts 141°
2026-05-05 10:02 25.07117 121.23264 104 ft 6 kts 141°
2026-05-05 10:02 25.07074 121.23273 106 ft 5 kts 193°
2026-05-05 10:02 25.07044 121.23248 106 ft 7 kts 224°
2026-05-05 10:02 25.07002 121.23197 106 ft 10 kts 229°
2026-05-05 10:03 25.06949 121.23129 106 ft 15 kts 229°
2026-05-05 10:03 25.06863 121.23021 104 ft 23 kts 229°
2026-05-05 10:03 25.06739 121.22864 105 ft 31 kts 229°
2026-05-05 10:03 25.06597 121.22685 105 ft 30 kts 229°
2026-05-05 10:04 25.06466 121.22520 105 ft 27 kts 229°
2026-05-05 10:04 25.06353 121.22377 105 ft 23 kts 229°
2026-05-05 10:04 25.06258 121.22261 106 ft 13 kts 216°
2026-05-05 10:04 25.06185 121.22274 105 ft 11 kts 136°
2026-05-05 10:05 25.06128 121.22335 104 ft 12 kts 128°
2026-05-05 10:05 25.06131 121.22411 103 ft 10 kts 58°
2026-05-05 10:05 25.06153 121.22442 105 ft 0 kts 49°
2026-05-05 10:05 25.06188 121.22486 104 ft 31 kts 49°
2026-05-05 10:06 25.06543 121.22939 104 ft 124 kts 49°
2026-05-05 10:06 25.07288 121.23874 316 ft 183 kts 51°
2026-05-05 10:06 25.08096 121.24892 1522 ft 173 kts 52°
2026-05-05 10:06 25.08893 121.25924 2379 ft 180 kts 53°
2026-05-05 10:07 25.09736 121.27046 2700 ft 202 kts 52°
2026-05-05 10:07 25.10697 121.28323 2906 ft 230 kts 52°
2026-05-05 10:07 25.11777 121.29747 3227 ft 254 kts 51°
2026-05-05 10:07 25.12996 121.31199 3745 ft 269 kts 45°
2026-05-05 10:08 25.14329 121.32684 4447 ft 275 kts 45°
2026-05-05 10:08 25.15686 121.34208 5199 ft 281 kts 45°
2026-05-05 10:08 25.17042 121.35744 5959 ft 286 kts 44°
2026-05-05 10:08 25.18447 121.37346 6697 ft 293 kts 44°
2026-05-05 10:09 25.19749 121.39094 7446 ft 300 kts 57°
2026-05-05 10:09 25.20507 121.41261 8156 ft 308 kts 82°
2026-05-05 10:09 25.20319 121.43591 8921 ft 308 kts 114°
2026-05-05 10:09 25.19135 121.45495 9715 ft 299 kts 146°
2026-05-05 10:10 25.17426 121.46796 10404 ft 302 kts 154°
2026-05-05 10:10 25.15563 121.48026 10760 ft 321 kts 154°
2026-05-05 10:10 25.13591 121.49330 11080 ft 340 kts 154°
2026-05-05 10:10 25.11511 121.50730 11412 ft 358 kts 153°
2026-05-05 10:11 25.09351 121.52203 11805 ft 371 kts 153°
2026-05-05 10:11 25.07142 121.53720 12382 ft 377 kts 152°
2026-05-05 10:11 25.04895 121.55266 12988 ft 382 kts 152°
2026-05-05 10:11 25.02628 121.56825 13599 ft 387 kts 152°
2026-05-05 10:12 25.00361 121.58385 14153 ft 390 kts 152°
2026-05-05 10:12 24.98053 121.59973 14737 ft 392 kts 152°
2026-05-05 10:12 24.95745 121.61562 15356 ft 392 kts 151°
2026-05-05 10:12 24.93429 121.63153 16012 ft 392 kts 151°
2026-05-05 10:13 24.91104 121.64747 16595 ft 394 kts 152°
2026-05-05 10:13 24.88773 121.66333 17023 ft 400 kts 152°
2026-05-05 10:13 24.86401 121.67961 17635 ft 400 kts 152°
2026-05-05 10:13 24.84043 121.69577 18158 ft 401 kts 152°
2026-05-05 10:14 24.81659 121.71205 18602 ft 405 kts 152°
2026-05-05 10:14 24.79272 121.72842 19027 ft 409 kts 152°
2026-05-05 10:14 24.76842 121.74507 19430 ft 413 kts 152°
2026-05-05 10:14 24.74386 121.76189 19850 ft 416 kts 153°
2026-05-05 10:15 24.71962 121.77846 20272 ft 420 kts 153°
2026-05-05 10:15 24.69472 121.79548 20703 ft 423 kts 153°
2026-05-05 10:15 24.66956 121.81266 21044 ft 429 kts 152°
2026-05-05 10:15 24.64436 121.82986 21416 ft 434 kts 153°
2026-05-05 10:16 24.61866 121.84741 21879 ft 436 kts 153°
2026-05-05 10:16 24.59301 121.86491 22292 ft 440 kts 153°
2026-05-05 10:16 24.57520 121.87706 22585 ft 442 kts 153°
2026-05-05 10:16 24.54980 121.89437 23029 ft 444 kts 153°
2026-05-05 10:17 24.52344 121.91232 23444 ft 448 kts 154°
2026-05-05 10:17 24.49678 121.93045 23808 ft 451 kts 154°
2026-05-05 10:17 24.47003 121.94865 24171 ft 455 kts 154°
2026-05-05 10:17 24.44296 121.96705 24545 ft 458 kts 154°
2026-05-05 10:18 24.41574 121.98527 24927 ft 460 kts 156°
2026-05-05 10:18 24.38781 122.00001 25313 ft 455 kts 166°
2026-05-05 10:18 24.36718 122.00707 25611 ft 450 kts 173°
2026-05-05 10:18 24.34643 122.01113 25914 ft 445 kts 180°
2026-05-05 10:19 24.31942 122.01216 26228 ft 441 kts 189°
2026-05-05 10:19 24.28905 122.00821 26598 ft 438 kts 197°
2026-05-05 10:19 24.25946 122.00068 27060 ft 436 kts 201°
2026-05-05 10:19 24.23077 121.99146 27504 ft 436 kts 203°
2026-05-05 10:20 24.20186 121.98138 27966 ft 438 kts 204°
2026-05-05 10:20 24.17280 121.97109 28407 ft 440 kts 204°
2026-05-05 10:20 24.14356 121.96091 28845 ft 442 kts 204°
2026-05-05 10:20 24.11407 121.95090 29281 ft 445 kts 203°
2026-05-05 10:21 24.08444 121.94104 29694 ft 447 kts 203°
2026-05-05 10:21 24.05448 121.93121 30000 ft 451 kts 203°
2026-05-05 10:21 24.02429 121.92137 30291 ft 454 kts 203°
2026-05-05 10:21 23.99388 121.91151 30594 ft 456 kts 203°
2026-05-05 10:22 23.96329 121.90160 30896 ft 459 kts 203°
2026-05-05 10:22 23.93268 121.89168 31181 ft 461 kts 203°
2026-05-05 10:22 23.90188 121.88169 31472 ft 463 kts 203°
2026-05-05 10:22 23.87086 121.87164 31737 ft 465 kts 203°
2026-05-05 10:23 23.83977 121.86155 31999 ft 467 kts 203°
2026-05-05 10:23 23.80897 121.85160 32267 ft 468 kts 203°
2026-05-05 10:23 23.77772 121.84151 32628 ft 468 kts 203°
2026-05-05 10:23 23.74655 121.83140 33023 ft 466 kts 203°
2026-05-05 10:24 23.71560 121.82135 33406 ft 465 kts 203°
2026-05-05 10:24 23.68449 121.81125 33793 ft 464 kts 203°
2026-05-05 10:24 23.65361 121.80123 34141 ft 463 kts 203°
2026-05-05 10:24 23.62279 121.79123 34389 ft 464 kts 203°
2026-05-05 10:25 23.59173 121.78123 34632 ft 465 kts 203°
2026-05-05 10:25 23.56069 121.77135 34895 ft 464 kts 203°
2026-05-05 10:25 23.52965 121.76136 35139 ft 465 kts 203°
2026-05-05 10:25 23.49869 121.75131 35383 ft 465 kts 203°
2026-05-05 10:26 23.46772 121.74123 35652 ft 464 kts 203°
2026-05-05 10:26 23.43674 121.73116 35911 ft 464 kts 203°
2026-05-05 10:26 23.40573 121.72111 36162 ft 464 kts 203°
2026-05-05 10:26 23.37473 121.71116 36410 ft 464 kts 203°
2026-05-05 10:27 23.34374 121.70117 36652 ft 464 kts 203°
2026-05-05 10:27 23.31320 121.69131 36864 ft 464 kts 203°
2026-05-05 10:27 23.28217 121.68128 37019 ft 466 kts 203°
2026-05-05 10:27 23.25102 121.67123 37240 ft 466 kts 203°
2026-05-05 10:28 23.21989 121.66120 37476 ft 466 kts 202°
2026-05-05 10:28 23.18886 121.65122 37698 ft 466 kts 202°
2026-05-05 10:28 23.15779 121.64124 37908 ft 466 kts 202°
2026-05-05 10:28 23.12661 121.63122 37974 ft 467 kts 202°
2026-05-05 10:29 23.06442 121.61126 37948 ft 466 kts 202°
2026-05-05 10:29 23.00209 121.59127 37967 ft 468 kts 202°
2026-05-05 10:30 22.93959 121.57133 37966 ft 469 kts 202°
2026-05-05 10:30 22.87705 121.55133 37963 ft 469 kts 202°
2026-05-05 10:31 22.81449 121.53132 37961 ft 469 kts 202°
2026-05-05 10:31 22.75191 121.51135 37960 ft 470 kts 202°
2026-05-05 10:32 22.68910 121.49130 37954 ft 470 kts 202°
2026-05-05 10:32 22.62861 121.46682 37953 ft 466 kts 207°
2026-05-05 10:33 22.56847 121.44053 37948 ft 466 kts 208°
2026-05-05 10:33 22.50841 121.41396 37960 ft 466 kts 207°
2026-05-05 10:34 22.44833 121.38748 37963 ft 466 kts 207°
2026-05-05 10:34 22.38821 121.36108 37967 ft 466 kts 207°
2026-05-05 10:35 22.32842 121.33487 37949 ft 466 kts 207°
2026-05-05 10:35 22.26825 121.30852 37956 ft 467 kts 207°
2026-05-05 10:36 22.21179 121.28379 37964 ft 469 kts 207°
2026-05-05 10:36 22.15130 121.25735 37964 ft 469 kts 207°
2026-05-05 10:37 22.09083 121.23095 37968 ft 469 kts 207°
2026-05-05 10:37 22.03034 121.20456 37966 ft 468 kts 207°
2026-05-05 10:38 21.97060 121.17853 37967 ft 468 kts 207°
2026-05-05 10:38 21.91105 121.15258 37967 ft 468 kts 207°
2026-05-05 10:39 21.85221 121.12694 37966 ft 468 kts 207°
2026-05-05 10:39 21.79426 121.10172 37965 ft 468 kts 207°
2026-05-05 10:40 21.73544 121.07613 37961 ft 470 kts 207°
2026-05-05 10:40 21.67651 121.05054 37959 ft 470 kts 207°
2026-05-05 10:41 21.61703 121.02475 37959 ft 470 kts 207°
2026-05-05 10:41 21.55718 120.99880 37957 ft 470 kts 207°
2026-05-05 10:42 21.46661 120.95959 37961 ft 472 kts 206°
2026-05-05 10:43 21.40601 120.93338 37954 ft 472 kts 207°
2026-05-05 10:43 21.34567 120.90730 37954 ft 472 kts 207°
2026-05-05 10:44 21.28501 120.88111 37959 ft 472 kts 207°
2026-05-05 10:44 21.22462 120.85505 37947 ft 473 kts 206°
2026-05-05 10:45 21.16483 120.82928 37949 ft 474 kts 206°
2026-05-05 10:45 21.10385 120.80303 37944 ft 474 kts 206°
2026-05-05 10:46 21.04256 120.77668 37946 ft 474 kts 206°
2026-05-05 10:46 20.97895 120.75759 37942 ft 483 kts 191°
2026-05-05 10:47 20.91203 120.75034 37940 ft 486 kts 189°
2026-05-05 10:47 20.84513 120.74507 37941 ft 487 kts 188°
2026-05-05 10:48 20.77798 120.73989 37936 ft 487 kts 188°
2026-05-05 10:48 20.71087 120.73449 37916 ft 487 kts 188°
2026-05-05 10:49 20.64372 120.72896 37939 ft 486 kts 188°
2026-05-05 10:49 20.58856 120.72441 37933 ft 486 kts 188°
2026-05-05 10:50 20.52226 120.71895 37938 ft 486 kts 188°
2026-05-05 10:50 20.45534 120.71345 37933 ft 486 kts 188°
2026-05-05 10:51 20.38847 120.70796 37930 ft 487 kts 188°
2026-05-05 10:51 20.32153 120.70247 37929 ft 487 kts 188°
2026-05-05 10:52 20.25447 120.69697 37926 ft 487 kts 188°
2026-05-05 10:52 20.18703 120.69145 37925 ft 486 kts 188°
2026-05-05 10:53 20.12041 120.68600 37917 ft 486 kts 188°
2026-05-05 10:53 20.05288 120.68048 37922 ft 486 kts 188°
2026-05-05 10:54 19.98545 120.67497 37925 ft 486 kts 188°
2026-05-05 10:54 19.91794 120.66946 37916 ft 486 kts 188°
2026-05-05 10:55 19.85047 120.66396 37913 ft 486 kts 188°
2026-05-05 10:55 19.78309 120.65847 37917 ft 486 kts 188°
2026-05-05 10:56 19.71576 120.65299 37915 ft 486 kts 188°
2026-05-05 10:56 19.64878 120.64754 37917 ft 486 kts 188°
2026-05-05 10:57 19.58137 120.64206 37913 ft 486 kts 188°
2026-05-05 10:57 19.51395 120.63659 37911 ft 486 kts 188°
2026-05-05 10:58 19.44643 120.63112 37911 ft 486 kts 188°
2026-05-05 10:58 19.37897 120.62564 37911 ft 486 kts 188°
2026-05-05 10:59 19.31153 120.62017 37908 ft 486 kts 188°
2026-05-05 10:59 19.24408 120.61471 37909 ft 486 kts 188°
2026-05-05 11:00 19.17652 120.60925 37906 ft 486 kts 188°
2026-05-05 11:00 19.10906 120.60380 37908 ft 486 kts 188°
2026-05-05 11:01 19.04205 120.59846 37907 ft 486 kts 188°
2026-05-05 11:01 18.97459 120.59299 37909 ft 487 kts 188°
2026-05-05 11:02 18.90687 120.58749 37901 ft 487 kts 188°
2026-05-05 11:02 18.83920 120.58203 37895 ft 488 kts 188°
2026-05-05 11:03 18.77191 120.57662 37905 ft 488 kts 188°
2026-05-05 11:03 18.70425 120.57118 37875 ft 488 kts 188°
2026-05-05 11:04 18.63654 120.56579 37895 ft 488 kts 188°
2026-05-05 11:04 18.56877 120.56033 37883 ft 488 kts 188°
2026-05-05 11:05 18.50093 120.55486 37881 ft 488 kts 188°
2026-05-05 11:05 18.43319 120.54942 37880 ft 488 kts 188°
2026-05-05 11:06 18.36542 120.54399 37874 ft 489 kts 188°
2026-05-05 11:06 18.29755 120.53856 37874 ft 489 kts 188°
2026-05-05 11:07 18.23021 120.53317 37882 ft 489 kts 188°
2026-05-05 11:07 18.16221 120.52772 38103 ft 489 kts 188°
2026-05-05 11:07 18.12839 120.52426 38348 ft 488 kts 190°
2026-05-05 11:08 18.09470 120.52017 38555 ft 487 kts 191°
2026-05-05 11:08 18.06103 120.51584 38731 ft 487 kts 191°
2026-05-05 11:08 18.02741 120.51153 38920 ft 486 kts 191°
2026-05-05 11:08 17.99383 120.50732 39085 ft 486 kts 191°
2026-05-05 11:09 17.96029 120.50322 39259 ft 486 kts 190°
2026-05-05 11:09 17.92669 120.49917 39412 ft 486 kts 190°
2026-05-05 11:09 17.89318 120.49518 39568 ft 485 kts 190°
2026-05-05 11:09 17.85955 120.49120 39728 ft 485 kts 190°
2026-05-05 11:10 17.82596 120.48723 39842 ft 485 kts 190°
2026-05-05 11:10 17.75877 120.47930 39883 ft 487 kts 190°
2026-05-05 11:11 17.69151 120.47135 39879 ft 487 kts 190°
2026-05-05 11:11 17.62419 120.46340 39882 ft 486 kts 190°
2026-05-05 11:12 17.55688 120.45545 39883 ft 487 kts 190°
2026-05-05 11:12 17.48957 120.44751 39891 ft 487 kts 190°
2026-05-05 11:13 17.42265 120.43964 39894 ft 487 kts 190°
2026-05-05 11:13 17.35534 120.43171 39894 ft 487 kts 190°
2026-05-05 11:14 17.28806 120.42379 39899 ft 487 kts 190°
2026-05-05 11:14 17.22071 120.41591 39895 ft 487 kts 189°
2026-05-05 11:15 17.15339 120.40797 39902 ft 487 kts 189°
2026-05-05 11:15 17.08603 120.40003 39912 ft 487 kts 189°
2026-05-05 11:16 17.01872 120.39212 39901 ft 486 kts 189°
2026-05-05 11:16 16.95151 120.38423 39906 ft 486 kts 189°
2026-05-05 11:17 16.88415 120.37633 39911 ft 486 kts 189°
2026-05-05 11:17 16.81729 120.36849 39910 ft 487 kts 189°
2026-05-05 11:18 16.75002 120.36062 39917 ft 487 kts 189°
2026-05-05 11:18 16.68259 120.35366 39917 ft 488 kts 187°
2026-05-05 11:19 16.61480 120.34943 39913 ft 488 kts 186°
2026-05-05 11:19 16.54705 120.34545 39911 ft 487 kts 186°
2026-05-05 11:20 16.47937 120.34106 39915 ft 487 kts 187°
2026-05-05 11:20 16.41174 120.33645 39914 ft 487 kts 187°
2026-05-05 11:21 16.34405 120.33179 39914 ft 487 kts 187°
2026-05-05 11:21 16.27633 120.32716 39912 ft 487 kts 187°
2026-05-05 11:22 16.20871 120.32254 39909 ft 487 kts 187°
2026-05-05 11:22 16.14139 120.31795 39909 ft 487 kts 187°
2026-05-05 11:23 16.07369 120.31334 39910 ft 487 kts 187°
2026-05-05 11:23 16.00601 120.30873 39909 ft 487 kts 187°
2026-05-05 11:24 15.93832 120.30413 39910 ft 487 kts 187°
2026-05-05 11:24 15.87059 120.29953 39911 ft 488 kts 187°
2026-05-05 11:25 15.80293 120.29493 39912 ft 488 kts 187°
2026-05-05 11:25 15.73513 120.29033 39906 ft 487 kts 186°
2026-05-05 11:26 15.66784 120.28578 39916 ft 487 kts 186°
2026-05-05 11:26 15.60021 120.28123 39921 ft 487 kts 186°
2026-05-05 11:27 15.53251 120.27662 39924 ft 487 kts 186°
2026-05-05 11:27 15.46475 120.27201 39923 ft 488 kts 186°
2026-05-05 11:28 15.39695 120.26741 39924 ft 488 kts 186°
2026-05-05 11:28 15.32915 120.26282 39923 ft 488 kts 186°
2026-05-05 11:29 15.26185 120.25828 39923 ft 488 kts 186°
2026-05-05 11:29 15.19411 120.25371 39916 ft 488 kts 186°
2026-05-05 11:30 15.12636 120.24921 39914 ft 488 kts 186°
2026-05-05 11:30 15.05871 120.24466 39911 ft 487 kts 186°
2026-05-05 11:31 14.99114 120.24004 39909 ft 487 kts 186°
2026-05-05 11:31 14.92363 120.23546 39910 ft 487 kts 186°
2026-05-05 11:32 14.85900 120.23110 39909 ft 487 kts 186°
2026-05-05 11:32 14.79135 120.22656 39909 ft 486 kts 186°
2026-05-05 11:33 14.72404 120.22100 39889 ft 485 kts 189°
2026-05-05 11:33 14.65712 120.21174 39886 ft 484 kts 190°
2026-05-05 11:34 14.59033 120.20219 39885 ft 485 kts 190°
2026-05-05 11:34 14.52350 120.19323 39883 ft 485 kts 189°
2026-05-05 11:35 14.45694 120.18462 39885 ft 484 kts 189°
2026-05-05 11:35 14.39014 120.17604 39886 ft 484 kts 189°
2026-05-05 11:36 14.32322 120.16743 39885 ft 484 kts 189°
2026-05-05 11:36 14.25634 120.15882 39884 ft 484 kts 189°
2026-05-05 11:37 14.18943 120.15019 39891 ft 484 kts 189°
2026-05-05 11:37 14.12257 120.14159 39890 ft 484 kts 189°
2026-05-05 11:38 14.05568 120.13306 39880 ft 484 kts 189°
2026-05-05 11:38 13.98934 120.12451 39877 ft 484 kts 189°
2026-05-05 11:39 13.92240 120.11618 39872 ft 485 kts 186°
2026-05-05 11:39 13.85500 120.12028 39885 ft 489 kts 169°
2026-05-05 11:40 13.79167 120.14606 39892 ft 493 kts 152°
2026-05-05 11:40 13.73269 120.18227 39878 ft 495 kts 149°
2026-05-05 11:41 13.67430 120.21985 39894 ft 495 kts 149°
2026-05-05 11:41 13.62570 120.25091 39891 ft 495 kts 150°
2026-05-05 11:42 13.56699 120.28804 39891 ft 495 kts 150°
2026-05-05 11:42 13.50821 120.32501 39889 ft 496 kts 150°
2026-05-05 11:43 13.44929 120.36203 39894 ft 496 kts 150°
2026-05-05 11:43 13.38957 120.39726 39894 ft 494 kts 157°
2026-05-05 11:44 13.32406 120.41623 39894 ft 489 kts 176°
2026-05-05 11:44 13.25688 120.41240 39896 ft 483 kts 195°
2026-05-05 11:45 13.19896 120.39044 39888 ft 481 kts 206°
2026-05-05 11:45 13.15034 120.36711 39892 ft 482 kts 207°
2026-05-05 11:46 13.10891 120.34671 39890 ft 482 kts 207°
2026-05-05 11:46 13.05717 120.32147 39888 ft 482 kts 207°
2026-05-05 11:47 12.99713 120.29257 39888 ft 482 kts 206°
2026-05-05 11:47 12.93656 120.26358 39883 ft 482 kts 206°
2026-05-05 11:48 12.84566 120.22009 39889 ft 482 kts 206°
2026-05-05 11:48 12.78490 120.19102 39889 ft 482 kts 206°
2026-05-05 11:49 12.72430 120.16205 39890 ft 482 kts 206°
2026-05-05 11:49 12.66437 120.13340 39884 ft 482 kts 206°
2026-05-05 11:50 12.60440 120.10475 39888 ft 481 kts 206°
2026-05-05 11:50 12.54419 120.07601 39884 ft 482 kts 206°
2026-05-05 11:51 12.48365 120.04712 39890 ft 482 kts 206°
2026-05-05 11:51 12.42368 120.01852 39888 ft 482 kts 206°
2026-05-05 11:52 12.36296 119.98957 39890 ft 482 kts 206°
2026-05-05 11:52 12.30218 119.96062 39894 ft 481 kts 206°
2026-05-05 11:53 12.24149 119.93172 39892 ft 481 kts 206°
2026-05-05 11:53 12.18077 119.90282 39894 ft 481 kts 206°
2026-05-05 11:54 12.12011 119.87396 39891 ft 481 kts 206°
2026-05-05 11:54 12.05937 119.84508 39887 ft 481 kts 206°
2026-05-05 11:55 11.99872 119.81626 39889 ft 481 kts 206°
2026-05-05 11:55 11.93823 119.78752 39889 ft 482 kts 206°
2026-05-05 11:56 11.87811 119.75898 39891 ft 482 kts 206°
2026-05-05 11:56 11.81887 119.73087 39889 ft 482 kts 206°
2026-05-05 11:57 11.75813 119.70206 39887 ft 482 kts 206°
2026-05-05 11:57 11.69740 119.67328 39889 ft 482 kts 206°
2026-05-05 11:58 11.63641 119.64481 39889 ft 482 kts 206°
2026-05-05 11:58 11.57535 119.61656 39889 ft 482 kts 206°
2026-05-05 11:59 11.51430 119.58829 39889 ft 482 kts 206°
2026-05-05 11:59 11.45327 119.55999 39889 ft 482 kts 206°
2026-05-05 12:00 11.39266 119.53189 39893 ft 481 kts 206°
2026-05-05 12:00 11.33169 119.50364 39893 ft 482 kts 206°
2026-05-05 12:01 11.27065 119.47537 39890 ft 482 kts 206°
2026-05-05 12:01 11.20957 119.44709 39888 ft 482 kts 206°
2026-05-05 12:02 11.14844 119.41880 39888 ft 482 kts 205°
2026-05-05 12:02 11.08744 119.39059 39888 ft 482 kts 205°
2026-05-05 12:03 11.02637 119.36236 39883 ft 482 kts 205°
2026-05-05 12:03 10.96532 119.33415 39883 ft 482 kts 205°
2026-05-05 12:04 10.90430 119.30598 39889 ft 482 kts 205°
2026-05-05 12:04 10.84327 119.27780 39888 ft 482 kts 205°
2026-05-05 12:05 10.78259 119.24979 39889 ft 482 kts 205°
2026-05-05 12:05 10.72147 119.22160 39887 ft 483 kts 205°
2026-05-05 12:06 10.66026 119.19339 39883 ft 483 kts 205°
2026-05-05 12:06 10.59908 119.16519 39884 ft 483 kts 205°
2026-05-05 12:07 10.53787 119.13700 39886 ft 483 kts 205°
2026-05-05 12:07 10.47658 119.10878 39882 ft 484 kts 205°
2026-05-05 12:08 10.41534 119.08060 39884 ft 484 kts 205°
2026-05-05 12:08 10.35403 119.05239 39883 ft 484 kts 205°
2026-05-05 12:09 10.29254 119.02419 39881 ft 484 kts 205°
2026-05-05 12:09 10.23166 118.99617 39878 ft 484 kts 205°
2026-05-05 12:10 10.17036 118.96798 39878 ft 484 kts 205°
2026-05-05 12:10 10.10909 118.93983 39877 ft 484 kts 205°
2026-05-05 12:11 10.04763 118.91162 39880 ft 484 kts 205°
2026-05-05 12:11 9.98622 118.88345 39878 ft 484 kts 205°
2026-05-05 12:12 9.92482 118.85529 39875 ft 484 kts 205°
2026-05-05 12:12 9.86341 118.82712 39875 ft 485 kts 205°
2026-05-05 12:13 9.80193 118.79895 39884 ft 485 kts 205°
2026-05-05 12:13 9.74132 118.76943 39884 ft 484 kts 212°
2026-05-05 12:14 9.68542 118.73131 39883 ft 483 kts 216°
2026-05-05 12:14 9.63117 118.69188 39886 ft 483 kts 217°
2026-05-05 12:15 9.57672 118.65194 39880 ft 482 kts 216°
2026-05-05 12:15 9.52237 118.61227 39890 ft 482 kts 216°
2026-05-05 12:16 9.46787 118.57262 39892 ft 482 kts 216°
2026-05-05 12:16 9.41340 118.53305 39900 ft 482 kts 216°
2026-05-05 12:17 9.35893 118.49349 39903 ft 482 kts 216°
2026-05-05 12:17 9.30446 118.45395 39900 ft 482 kts 216°
2026-05-05 12:18 9.24977 118.41424 39902 ft 484 kts 216°
2026-05-05 12:18 9.19502 118.37453 39901 ft 484 kts 216°
2026-05-05 12:19 9.14023 118.33478 39898 ft 485 kts 216°
2026-05-05 12:19 9.08540 118.29504 39900 ft 485 kts 216°
2026-05-05 12:20 9.03041 118.25540 39899 ft 485 kts 215°
2026-05-05 12:20 8.97582 118.21605 39898 ft 485 kts 216°
2026-05-05 12:21 8.92083 118.17640 39900 ft 486 kts 216°
2026-05-05 12:21 8.86571 118.13670 39896 ft 486 kts 216°
2026-05-05 12:22 8.81071 118.09710 39897 ft 486 kts 216°
2026-05-05 12:22 8.75558 118.05743 39891 ft 486 kts 215°
2026-05-05 12:23 8.70044 118.01777 39901 ft 486 kts 215°
2026-05-05 12:23 8.64529 117.97812 39892 ft 488 kts 215°
2026-05-05 12:24 8.59015 117.93848 39898 ft 489 kts 215°
2026-05-05 12:24 8.53458 117.89855 39891 ft 490 kts 215°
2026-05-05 12:25 8.47903 117.85865 39894 ft 490 kts 215°
2026-05-05 12:25 8.42354 117.81881 39884 ft 490 kts 215°
2026-05-05 12:26 8.36798 117.77893 39885 ft 489 kts 215°
2026-05-05 12:26 8.31248 117.73911 39885 ft 489 kts 215°
2026-05-05 12:27 8.25703 117.69934 39885 ft 489 kts 215°
2026-05-05 12:27 8.20152 117.65954 39888 ft 489 kts 215°
2026-05-05 12:28 8.14630 117.61996 39889 ft 489 kts 215°
2026-05-05 12:28 8.09077 117.58017 39883 ft 489 kts 215°
2026-05-05 12:29 8.03520 117.54037 39885 ft 491 kts 215°
2026-05-05 12:29 7.98881 117.50715 39886 ft 493 kts 215°
2026-05-05 12:30 7.92327 117.46024 39886 ft 494 kts 215°
2026-05-05 12:30 7.86717 117.42010 39885 ft 495 kts 214°
2026-05-05 12:31 7.82052 117.38673 39878 ft 494 kts 214°
2026-05-05 12:31 7.76439 117.34660 39880 ft 494 kts 215°
2026-05-05 12:32 7.70836 117.30654 39883 ft 494 kts 214°
2026-05-05 12:32 7.65229 117.26660 39883 ft 493 kts 214°
2026-05-05 12:33 7.59607 117.22691 39885 ft 493 kts 214°
2026-05-05 12:33 7.54444 117.19049 39887 ft 494 kts 214°
2026-05-05 12:34 7.48822 117.15081 39888 ft 493 kts 214°
2026-05-05 12:34 7.43190 117.11104 39883 ft 494 kts 214°
2026-05-05 12:35 7.37567 117.07134 39885 ft 493 kts 214°
2026-05-05 12:35 7.31941 117.03163 39886 ft 493 kts 214°
2026-05-05 12:36 7.26312 116.99191 39886 ft 493 kts 214°
2026-05-05 12:36 7.20691 116.95226 39881 ft 493 kts 214°
2026-05-05 12:37 7.15110 116.91290 39885 ft 493 kts 214°
2026-05-05 12:37 7.09493 116.87331 39885 ft 493 kts 214°
2026-05-05 12:38 7.03872 116.83370 39886 ft 492 kts 214°
2026-05-05 12:38 6.98270 116.79424 39860 ft 491 kts 214°
2026-05-05 12:39 6.92670 116.75479 39858 ft 491 kts 214°
2026-05-05 12:39 6.87068 116.71535 39864 ft 491 kts 214°
2026-05-05 12:40 6.81467 116.67593 39865 ft 491 kts 214°
2026-05-05 12:40 6.75855 116.63645 39877 ft 492 kts 215°
2026-05-05 12:41 6.70245 116.59698 39881 ft 492 kts 215°
2026-05-05 12:41 6.64670 116.55777 39885 ft 492 kts 214°
2026-05-05 12:42 6.59043 116.51821 39894 ft 493 kts 214°
2026-05-05 12:42 6.53416 116.47867 39891 ft 494 kts 214°
2026-05-05 12:43 6.47784 116.43919 39898 ft 494 kts 214°
2026-05-05 12:43 6.42155 116.39974 39893 ft 493 kts 214°
2026-05-05 12:44 6.36529 116.36031 39895 ft 492 kts 214°
2026-05-05 12:44 6.30906 116.32091 39893 ft 492 kts 214°
2026-05-05 12:45 6.25287 116.28154 39885 ft 492 kts 214°
2026-05-05 12:45 6.19670 116.24221 39887 ft 493 kts 214°
2026-05-05 12:46 6.14029 116.20271 39861 ft 494 kts 214°
2026-05-05 12:46 6.08437 116.16357 39850 ft 492 kts 214°
2026-05-05 12:47 6.02831 116.12434 39837 ft 491 kts 214°
2026-05-05 12:47 5.97225 116.08511 39830 ft 491 kts 214°
2026-05-05 12:48 5.91615 116.04588 39830 ft 491 kts 214°
2026-05-05 12:48 5.86066 116.00592 39827 ft 491 kts 217°
2026-05-05 12:49 5.80706 115.96344 39831 ft 491 kts 218°
2026-05-05 12:49 5.75361 115.92076 39830 ft 491 kts 218°
2026-05-05 12:50 5.69984 115.87848 39839 ft 491 kts 217°
2026-05-05 12:50 5.64588 115.83641 39841 ft 491 kts 217°
2026-05-05 12:51 5.59186 115.79436 39847 ft 491 kts 217°
2026-05-05 12:51 5.53795 115.75238 39843 ft 491 kts 217°
2026-05-05 12:52 5.48399 115.71035 39851 ft 491 kts 217°
2026-05-05 12:52 5.43042 115.66864 39850 ft 490 kts 217°
2026-05-05 12:53 5.37649 115.62665 39847 ft 491 kts 217°
2026-05-05 12:53 5.32248 115.58433 39852 ft 492 kts 218°
2026-05-05 12:54 5.24197 115.52029 39855 ft 492 kts 218°
2026-05-05 12:55 5.18864 115.47797 39856 ft 492 kts 218°
2026-05-05 12:55 5.13487 115.43540 39858 ft 492 kts 217°
2026-05-05 12:56 5.08127 115.39299 39875 ft 491 kts 217°
2026-05-05 12:56 5.02760 115.35054 39867 ft 491 kts 217°
2026-05-05 12:57 4.97395 115.30810 39863 ft 491 kts 217°
2026-05-05 12:57 4.92034 115.26571 39875 ft 491 kts 217°
2026-05-05 12:58 4.86672 115.22332 39874 ft 491 kts 217°
2026-05-05 12:58 4.81351 115.18099 39887 ft 491 kts 218°
2026-05-05 12:59 4.76046 115.13787 39879 ft 491 kts 218°
2026-05-05 12:59 4.70734 115.09461 39880 ft 491 kts 218°
2026-05-05 13:00 4.62768 115.03003 39891 ft 491 kts 218°
2026-05-05 13:01 4.52119 114.94387 39889 ft 492 kts 218°
2026-05-05 13:01 4.46797 114.90082 39887 ft 492 kts 218°
2026-05-05 13:02 4.41455 114.85791 39897 ft 492 kts 217°
2026-05-05 13:02 4.36027 114.81698 39893 ft 492 kts 215°
2026-05-05 13:03 4.30521 114.77616 39897 ft 492 kts 216°
2026-05-05 13:03 4.25032 114.73513 39889 ft 492 kts 216°
2026-05-05 13:04 4.19561 114.69398 39889 ft 492 kts 216°
2026-05-05 13:04 4.14087 114.65275 39895 ft 492 kts 216°
2026-05-05 13:05 4.08598 114.61142 39888 ft 494 kts 216°
2026-05-05 13:05 4.03137 114.57031 39883 ft 494 kts 216°
2026-05-05 13:06 3.97642 114.52897 39885 ft 494 kts 216°
2026-05-05 13:06 3.92140 114.48758 39886 ft 494 kts 216°
2026-05-05 13:07 3.86719 114.44528 39888 ft 494 kts 218°
2026-05-05 13:07 3.81346 114.40224 39888 ft 494 kts 218°
2026-05-05 13:08 3.75965 114.35936 39886 ft 495 kts 217°
2026-05-05 13:08 3.70558 114.31656 39894 ft 495 kts 217°
2026-05-05 13:09 3.65149 114.27384 39891 ft 495 kts 217°
2026-05-05 13:09 3.59735 114.23109 39893 ft 495 kts 217°
2026-05-05 13:10 3.54319 114.18830 39894 ft 495 kts 217°
2026-05-05 13:10 3.48908 114.14557 39896 ft 495 kts 217°
2026-05-05 13:11 3.43526 114.10307 39895 ft 496 kts 217°
2026-05-05 13:11 3.38106 114.06028 39897 ft 496 kts 217°
2026-05-05 13:12 3.32687 114.01749 39907 ft 497 kts 217°
2026-05-05 13:12 3.27258 113.97463 39902 ft 497 kts 217°
2026-05-05 13:13 3.21831 113.93180 39901 ft 497 kts 217°
2026-05-05 13:13 3.16407 113.88900 39907 ft 496 kts 217°
2026-05-05 13:14 3.10979 113.84618 39899 ft 497 kts 217°
2026-05-05 13:14 3.05587 113.80364 39904 ft 497 kts 217°
2026-05-05 13:15 3.00160 113.76082 39906 ft 497 kts 217°
2026-05-05 13:15 2.94732 113.71801 39896 ft 497 kts 217°
2026-05-05 13:16 2.89381 113.67581 39902 ft 497 kts 217°
2026-05-05 13:16 2.83951 113.63300 39896 ft 497 kts 217°
2026-05-05 13:17 2.78523 113.59020 39900 ft 497 kts 217°
2026-05-05 13:17 2.73081 113.54736 39899 ft 498 kts 217°
2026-05-05 13:18 2.67628 113.50451 39896 ft 498 kts 217°
2026-05-05 13:18 2.62180 113.46171 39897 ft 498 kts 217°
2026-05-05 13:19 2.56723 113.41883 39894 ft 498 kts 217°
2026-05-05 13:19 2.51265 113.37595 39900 ft 499 kts 217°
2026-05-05 13:20 2.46729 113.34033 39896 ft 499 kts 217°
2026-05-05 13:20 2.40395 113.29057 39894 ft 497 kts 217°
2026-05-05 13:21 2.34954 113.24784 39898 ft 497 kts 217°
2026-05-05 13:21 2.30442 113.21240 39892 ft 497 kts 217°
2026-05-05 13:22 2.25007 113.16973 39894 ft 497 kts 217°
2026-05-05 13:22 2.19568 113.12703 39894 ft 497 kts 217°
2026-05-05 13:23 2.14147 113.08447 39892 ft 497 kts 217°
2026-05-05 13:23 2.08707 113.04176 39891 ft 497 kts 217°
2026-05-05 13:24 2.03263 112.99903 39894 ft 497 kts 217°
2026-05-05 13:24 1.97821 112.95631 39892 ft 497 kts 217°
2026-05-05 13:25 1.92373 112.91356 39898 ft 497 kts 217°
2026-05-05 13:25 1.86938 112.87091 39901 ft 497 kts 217°
2026-05-05 13:26 1.81525 112.82843 39904 ft 497 kts 217°
2026-05-05 13:26 1.76084 112.78574 39910 ft 497 kts 217°
2026-05-05 13:27 1.70646 112.74308 39910 ft 497 kts 217°
2026-05-05 13:27 1.65208 112.70042 39916 ft 496 kts 217°
2026-05-05 13:28 1.59773 112.65779 39917 ft 496 kts 217°
2026-05-05 13:28 1.54348 112.61529 39918 ft 496 kts 216°
2026-05-05 13:29 1.48891 112.57292 39924 ft 496 kts 216°
2026-05-05 13:29 1.43428 112.53058 39924 ft 496 kts 216°
2026-05-05 13:30 1.37975 112.48827 39917 ft 496 kts 216°
2026-05-05 13:30 1.32564 112.44627 39913 ft 496 kts 216°
2026-05-05 13:31 1.27101 112.40385 39910 ft 498 kts 216°
2026-05-05 13:31 1.21631 112.36138 39910 ft 498 kts 216°
2026-05-05 13:32 1.16319 112.32014 39904 ft 498 kts 216°
2026-05-05 13:32 1.10861 112.27777 39897 ft 498 kts 216°
2026-05-05 13:33 1.05384 112.23527 39897 ft 498 kts 217°
2026-05-05 13:33 0.99912 112.19280 39897 ft 499 kts 217°
2026-05-05 13:34 0.94535 112.15106 39894 ft 499 kts 217°
2026-05-05 13:34 0.89089 112.10879 39894 ft 499 kts 217°
2026-05-05 13:35 0.83600 112.06619 39896 ft 500 kts 217°
2026-05-05 13:35 0.78105 112.02354 39894 ft 500 kts 217°
2026-05-05 13:36 0.72615 111.98094 39893 ft 500 kts 217°
2026-05-05 13:36 0.67125 111.93834 39888 ft 499 kts 217°
2026-05-05 13:37 0.61641 111.89578 39888 ft 499 kts 217°
2026-05-05 13:37 0.56162 111.85327 39890 ft 499 kts 217°
2026-05-05 13:38 0.50679 111.81072 39892 ft 499 kts 217°
2026-05-05 13:38 0.45229 111.76844 39889 ft 500 kts 217°
2026-05-05 13:39 0.39724 111.72572 39889 ft 501 kts 217°
2026-05-05 13:39 0.34220 111.68301 39889 ft 501 kts 217°
2026-05-05 13:40 0.28718 111.64032 39887 ft 501 kts 217°
2026-05-05 13:40 0.23214 111.59762 39886 ft 501 kts 217°